COSMOS 397

导读

COSMOS 397(宇宙397号)是独联体(CIS,实际为苏联)在冷战时期发射的“宇宙”系列卫星,于1971年2月25日08:00发射入轨。作为苏联早期航天项目的组成部分,该卫星归属军用航天体系,延续了“宇宙”系列卫星承担空间技术验证或军事侦察任务的特征,运行在近地轨道,是苏联冷战时期太空军事化探索的典型产物,体现了当时苏联在航天领域的技术实力,完成任务后再入大气层销毁。

Basic Information
目录编号:
4964
目录名称:
COSMOS 397
国际标识:
1971-015A
轨道中心:
EARTH
卫星名称:
COSMOS 397
卫星全名:
--
卫星状态:
在轨 (已飞行20199 天)
发射日期:
1971-02-25 UTC
国别 :
俄罗斯(独联体) (CIS)
星等 :
--
Orbit Information
数据来源 国际轨道数据 AOE轨道数据
星历时间 2026-06-15T05:53:46+0800
7小时前
查看轨道信息
2026-06-15T05:00:00+0800
8小时前
查看轨道信息
半长轴 7739.958km 7739.963km
偏心率 0.1032361 0.1031596
轨道倾角 65.722° 65.724°
近地点辐角 237.053° 237.120°
升交点赤经 119.379° 119.451°
平近点角 112.710° 301.299°
近地点 562.777km 563.374km
远地点 2160.865km 2160.278km
周期 112.945分钟 112.945分钟
每日圈数 12.749551 12.74954
Detailed Information
使用方式:
暂无
2D Orbit Map
3D Orbit Map
Orbit Altitude Analysis Chart
Orbit Inclination Analysis Chart
Orbit Comprehensive Analysis Chart
View Comprehensive Chart